Zeitzone: GMT-01:00

Datum;Zeit;W�rmebedarf[kW]
2011-01-01;00:00:00;52.823529
2011-01-01;01:00:00;52.629156
2011-01-01;02:00:00;53.161125
2011-01-01;03:00:00;53.695652
2011-01-01;04:00:00;58.025575
2011-01-01;05:00:00;54.217391
2011-01-01;06:00:00;54.286445
2011-01-01;07:00:00;54.667519
2011-01-01;08:00:00;54.283887
2011-01-01;09:00:00;51.156010
2011-01-01;10:00:00;46.498721
2011-01-01;11:00:00;41.959079
2011-01-01;12:00:00;39.690537
2011-01-01;13:00:00;39.291560
2011-01-01;14:00:00;39.508951
2011-01-01;15:00:00;41.820972
2011-01-01;16:00:00;44.424552
2011-01-01;17:00:00;45.560102
2011-01-01;18:00:00;46.074169
2011-01-01;19:00:00;46.797954
2011-01-01;20:00:00;47.570332
2011-01-01;21:00:00;47.580563
2011-01-01;22:00:00;48.150895
2011-01-01;23:00:00;48.516624
2011-01-02;00:00:00;49.595908
2011-01-02;01:00:00;51.498721
2011-01-02;02:00:00;52.508951
2011-01-02;03:00:00;52.953964
2011-01-02;04:00:00;53.872123
2011-01-02;05:00:00;54.222506
2011-01-02;06:00:00;54.795396
2011-01-02;07:00:00;45.179028
2011-01-02;08:00:00;44.703325
2011-01-02;09:00:00;42.805627
2011-01-02;10:00:00;40.575448
2011-01-02;11:00:00;38.406650
2011-01-02;12:00:00;39.519182
2011-01-02;13:00:00;38.074169
2011-01-02;14:00:00;38.168798
2011-01-02;15:00:00;39.033248
2011-01-02;16:00:00;40.539642
2011-01-02;17:00:00;41.503836
2011-01-02;18:00:00;51.731458
2011-01-02;19:00:00;53.102302
2011-01-02;20:00:00;54.056266
2011-01-02;21:00:00;54.877238
2011-01-02;22:00:00;55.549872
2011-01-02;23:00:00;56.012788
2011-01-03;00:00:00;56.434783
2011-01-03;01:00:00;56.519182
2011-01-03;02:00:00;57.074169
2011-01-03;03:00:00;56.905371
2011-01-03;04:00:00;57.404092
2011-01-03;05:00:00;57.345269
2011-01-03;06:00:00;57.358056
2011-01-03;07:00:00;50.189258
2011-01-03;08:00:00;49.335038
2011-01-03;09:00:00;40.156010
2011-01-03;10:00:00;30.598465
2011-01-03;11:00:00;24.056266
2011-01-03;12:00:00;21.918159
2011-01-03;13:00:00;18.278772
2011-01-03;14:00:00;18.053708
2011-01-03;15:00:00;21.424552
2011-01-03;16:00:00;32.209719
2011-01-03;17:00:00;30.066496
2011-01-03;18:00:00;32.314578
2011-01-03;19:00:00;45.974425
2011-01-03;20:00:00;48.102302
2011-01-03;21:00:00;50.219949
2011-01-03;22:00:00;52.191816
2011-01-03;23:00:00;54.071611
2011-01-04;00:00:00;57.299233
2011-01-04;01:00:00;59.693095
2011-01-04;02:00:00;62.580563
2011-01-04;03:00:00;64.416880
2011-01-04;04:00:00;66.225064
2011-01-04;05:00:00;67.606138
2011-01-04;06:00:00;68.718670
2011-01-04;07:00:00;69.890026
2011-01-04;08:00:00;70.094629
2011-01-04;09:00:00;64.005115
2011-01-04;10:00:00;56.099744
2011-01-04;11:00:00;49.930946
2011-01-04;12:00:00;47.649616
2011-01-04;13:00:00;47.138107
2011-01-04;14:00:00;45.895141
2011-01-04;15:00:00;47.557545
2011-01-04;16:00:00;55.941176
2011-01-04;17:00:00;58.373402
2011-01-04;18:00:00;59.979540
2011-01-04;19:00:00;61.654731
2011-01-04;20:00:00;62.895141
2011-01-04;21:00:00;64.332481
2011-01-04;22:00:00;65.664962
2011-01-04;23:00:00;66.890026
2011-01-05;00:00:00;67.849105
2011-01-05;01:00:00;68.624041
2011-01-05;02:00:00;68.575448
2011-01-05;03:00:00;68.713555
2011-01-05;04:00:00;69.199488
2011-01-05;05:00:00;69.176471
2011-01-05;06:00:00;69.526854
2011-01-05;07:00:00;69.265985
2011-01-05;08:00:00;69.306905
2011-01-05;09:00:00;67.156010
2011-01-05;10:00:00;64.815857
2011-01-05;11:00:00;63.242967
2011-01-05;12:00:00;61.918159
2011-01-05;13:00:00;60.971867
2011-01-05;14:00:00;61.117647
2011-01-05;15:00:00;62.230179
2011-01-05;16:00:00;64.693095
2011-01-05;17:00:00;66.439898
2011-01-05;18:00:00;66.754476
2011-01-05;19:00:00;67.038363
2011-01-05;20:00:00;68.161125
2011-01-05;21:00:00;69.173913
2011-01-05;22:00:00;69.739130
2011-01-05;23:00:00;70.588235
2011-01-06;00:00:00;71.823529
2011-01-06;01:00:00;73.312020
2011-01-06;02:00:00;75.023018
2011-01-06;03:00:00;76.074169
2011-01-06;04:00:00;76.803069
2011-01-06;05:00:00;77.777494
2011-01-06;06:00:00;78.317136
2011-01-06;07:00:00;79.997442
2011-01-06;08:00:00;79.641944
2011-01-06;09:00:00;71.051151
2011-01-06;10:00:00;62.823529
2011-01-06;11:00:00;56.994885
2011-01-06;12:00:00;54.181586
2011-01-06;13:00:00;52.145780
2011-01-06;14:00:00;51.874680
2011-01-06;15:00:00;55.283887
2011-01-06;16:00:00;60.976982
2011-01-06;17:00:00;61.785166
2011-01-06;18:00:00;65.537084
2011-01-06;19:00:00;67.127877
2011-01-06;20:00:00;68.534527
2011-01-06;21:00:00;69.414322
2011-01-06;22:00:00;70.373402
2011-01-06;23:00:00;71.094629
2011-01-07;00:00:00;71.808184
2011-01-07;01:00:00;71.936061
2011-01-07;02:00:00;72.585678
2011-01-07;03:00:00;73.324808
2011-01-07;04:00:00;73.831202
2011-01-07;05:00:00;73.787724
2011-01-07;06:00:00;73.797954
2011-01-07;07:00:00;73.920716
2011-01-07;08:00:00;73.378517
2011-01-07;09:00:00;68.342711
2011-01-07;10:00:00;61.785166
2011-01-07;11:00:00;56.035806
2011-01-07;12:00:00;52.058824
2011-01-07;13:00:00;50.023018
2011-01-07;14:00:00;50.884910
2011-01-07;15:00:00;54.076726
2011-01-07;16:00:00;58.171355
2011-01-07;17:00:00;59.705882
2011-01-07;18:00:00;63.519182
2011-01-07;19:00:00;65.872123
2011-01-07;20:00:00;66.455243
2011-01-07;21:00:00;67.757033
2011-01-07;22:00:00;68.549872
2011-01-07;23:00:00;69.304348
2011-01-08;00:00:00;70.127877
2011-01-08;01:00:00;71.099744
2011-01-08;02:00:00;72.268542
2011-01-08;03:00:00;72.639386
2011-01-08;04:00:00;72.936061
2011-01-08;05:00:00;72.874680
2011-01-08;06:00:00;72.982097
2011-01-08;07:00:00;73.327366
2011-01-08;08:00:00;72.994885
2011-01-08;09:00:00;71.317136
2011-01-08;10:00:00;68.693095
2011-01-08;11:00:00;66.554987
2011-01-08;12:00:00;65.355499
2011-01-08;13:00:00;64.833760
2011-01-08;14:00:00;64.790281
2011-01-08;15:00:00;65.624041
2011-01-08;16:00:00;68.207161
2011-01-08;17:00:00;69.736573
2011-01-08;18:00:00;71.445013
2011-01-08;19:00:00;73.544757
2011-01-08;20:00:00;74.416880
2011-01-08;21:00:00;75.856777
2011-01-08;22:00:00;77.171356
2011-01-08;23:00:00;78.473146
2011-01-09;00:00:00;79.335038
2011-01-09;01:00:00;80.897698
2011-01-09;02:00:00;81.115090
2011-01-09;03:00:00;81.503836
2011-01-09;04:00:00;82.140665
2011-01-09;05:00:00;82.352941
2011-01-09;06:00:00;83.125320
2011-01-09;07:00:00;85.813299
2011-01-09;08:00:00;84.974425
2011-01-09;09:00:00;83.355499
2011-01-09;10:00:00;82.212276
2011-01-09;11:00:00;81.846547
2011-01-09;12:00:00;80.575448
2011-01-09;13:00:00;72.611253
2011-01-09;14:00:00;69.933504
2011-01-09;15:00:00;70.590793
2011-01-09;16:00:00;74.299233
2011-01-09;17:00:00;76.273657
2011-01-09;18:00:00;76.792839
2011-01-09;19:00:00;78.235294
2011-01-09;20:00:00;79.235294
2011-01-09;21:00:00;80.378517
2011-01-09;22:00:00;80.570332
2011-01-09;23:00:00;81.468031
2011-01-10;00:00:00;82.127877
2011-01-10;01:00:00;83.391304
2011-01-10;02:00:00;83.800512
2011-01-10;03:00:00;83.938619
2011-01-10;04:00:00;84.557545
2011-01-10;05:00:00;84.930946
2011-01-10;06:00:00;85.176471
2011-01-10;07:00:00;88.012788
2011-01-10;08:00:00;87.672634
2011-01-10;09:00:00;85.843990
2011-01-10;10:00:00;81.744246
2011-01-10;11:00:00;78.877238
2011-01-10;12:00:00;79.953964
2011-01-10;13:00:00;70.030691
2011-01-10;14:00:00;66.698210
2011-01-10;15:00:00;66.030691
2011-01-10;16:00:00;71.191816
2011-01-10;17:00:00;73.519182
2011-01-10;18:00:00;75.409207
2011-01-10;19:00:00;77.156010
2011-01-10;20:00:00;77.976982
2011-01-10;21:00:00;78.877238
2011-01-10;22:00:00;79.718670
2011-01-10;23:00:00;80.895141
2011-01-11;00:00:00;83.209719
2011-01-11;01:00:00;83.583120
2011-01-11;02:00:00;84.618926
2011-01-11;03:00:00;84.843990
2011-01-11;04:00:00;85.340153
2011-01-11;05:00:00;85.872123
2011-01-11;06:00:00;85.933504
2011-01-11;07:00:00;85.936061
2011-01-11;08:00:00;86.327366
2011-01-11;09:00:00;79.941176
2011-01-11;10:00:00;71.063939
2011-01-11;11:00:00;63.483376
2011-01-11;12:00:00;59.544757
2011-01-11;13:00:00;57.322251
2011-01-11;14:00:00;57.388747
2011-01-11;15:00:00;59.219949
2011-01-11;16:00:00;65.529412
2011-01-11;17:00:00;69.350384
2011-01-11;18:00:00;72.112532
2011-01-11;19:00:00;74.677749
2011-01-11;20:00:00;77.457801
2011-01-11;21:00:00;80.046036
2011-01-11;22:00:00;82.526854
2011-01-11;23:00:00;85.115090
2011-01-12;00:00:00;89.102302
2011-01-12;01:00:00;93.056266
2011-01-12;02:00:00;97.102302
2011-01-12;03:00:00;99.452685
2011-01-12;04:00:00;101.961637
2011-01-12;05:00:00;104.531969
2011-01-12;06:00:00;109.186701
2011-01-12;07:00:00;108.135550
2011-01-12;08:00:00;108.560102
2011-01-12;09:00:00;103.900256
2011-01-12;10:00:00;97.135550
2011-01-12;11:00:00;92.314578
2011-01-12;12:00:00;91.710997
2011-01-12;13:00:00;92.905371
2011-01-12;14:00:00;92.572890
2011-01-12;15:00:00;94.176471
2011-01-12;16:00:00;102.631714
2011-01-12;17:00:00;106.150895
2011-01-12;18:00:00;108.849105
2011-01-12;19:00:00;109.432225
2011-01-12;20:00:00;80.930946
2011-01-12;21:00:00;112.281330
2011-01-12;22:00:00;113.524297
2011-01-12;23:00:00;114.132992
2011-01-13;00:00:00;112.199489
2011-01-13;01:00:00;111.508951
2011-01-13;02:00:00;111.048593
2011-01-13;03:00:00;110.943734
2011-01-13;04:00:00;110.079284
2011-01-13;05:00:00;109.905371
2011-01-13;06:00:00;109.657289
2011-01-13;07:00:00;119.503836
2011-01-13;08:00:00;118.337596
2011-01-13;09:00:00;108.350384
2011-01-13;10:00:00;97.437340
2011-01-13;11:00:00;86.698210
2011-01-13;12:00:00;78.375959
2011-01-13;13:00:00;74.304348
2011-01-13;14:00:00;72.861893
2011-01-13;15:00:00;76.332481
2011-01-13;16:00:00;84.053708
2011-01-13;17:00:00;85.199488
2011-01-13;18:00:00;62.644501
2011-01-13;19:00:00;85.601023
2011-01-13;20:00:00;85.360614
2011-01-13;21:00:00;85.437340
2011-01-13;22:00:00;85.953964
2011-01-13;23:00:00;85.606138
2011-01-14;00:00:00;86.797954
2011-01-14;01:00:00;88.012788
2011-01-14;02:00:00;90.767263
2011-01-14;03:00:00;89.069054
2011-01-14;04:00:00;89.836317
2011-01-14;05:00:00;90.314578
2011-01-14;06:00:00;90.411765
2011-01-14;07:00:00;95.365729
2011-01-14;08:00:00;95.173913
2011-01-14;09:00:00;94.805627
2011-01-14;10:00:00;94.079284
2011-01-14;11:00:00;93.278772
2011-01-14;12:00:00;91.739130
2011-01-14;13:00:00;91.322251
2011-01-14;14:00:00;92.401535
2011-01-14;15:00:00;93.125320
2011-01-14;16:00:00;94.263427
2011-01-14;17:00:00;95.468031
2011-01-14;18:00:00;91.163683
2011-01-14;19:00:00;92.994885
2011-01-14;20:00:00;95.040921
2011-01-14;21:00:00;95.393862
2011-01-14;22:00:00;96.329923
2011-01-14;23:00:00;97.907928
2011-01-15;00:00:00;98.094629
2011-01-15;01:00:00;100.181586
2011-01-15;02:00:00;100.884911
2011-01-15;03:00:00;102.056266
2011-01-15;04:00:00;103.358056
2011-01-15;05:00:00;104.242967
2011-01-15;06:00:00;104.797954
2011-01-15;07:00:00;115.166240
2011-01-15;08:00:00;91.833760
2011-01-15;09:00:00;112.411765
2011-01-15;10:00:00;110.278772
2011-01-15;11:00:00;108.340154
2011-01-15;12:00:00;106.598466
2011-01-15;13:00:00;107.762148
2011-01-15;14:00:00;109.161125
2011-01-15;15:00:00;111.005115
2011-01-15;16:00:00;112.900256
2011-01-15;17:00:00;111.713555
2011-01-15;18:00:00;102.373402
2011-01-15;19:00:00;102.429667
2011-01-15;20:00:00;101.677749
2011-01-15;21:00:00;101.145780
2011-01-15;22:00:00;100.209719
2011-01-15;23:00:00;99.168798
2011-01-16;00:00:00;99.396419
2011-01-16;01:00:00;98.214834
2011-01-16;02:00:00;96.987212
2011-01-16;03:00:00;95.631714
2011-01-16;04:00:00;95.184143
2011-01-16;05:00:00;94.841432
2011-01-16;06:00:00;95.038363
2011-01-16;07:00:00;98.186701
2011-01-16;08:00:00;96.902813
2011-01-16;09:00:00;95.202046
2011-01-16;10:00:00;92.273657
2011-01-16;11:00:00;89.488491
2011-01-16;12:00:00;87.107417
2011-01-16;13:00:00;85.624041
2011-01-16;14:00:00;84.964194
2011-01-16;15:00:00;86.567775
2011-01-16;16:00:00;87.204604
2011-01-16;17:00:00;86.938619
2011-01-16;18:00:00;86.324808
2011-01-16;19:00:00;87.317136
2011-01-16;20:00:00;87.156010
2011-01-16;21:00:00;87.304348
2011-01-16;22:00:00;87.636829
2011-01-16;23:00:00;88.281330
2011-01-17;00:00:00;89.404092
2011-01-17;01:00:00;90.437340
2011-01-17;02:00:00;91.882353
2011-01-17;03:00:00;92.148338
2011-01-17;04:00:00;92.585678
2011-01-17;05:00:00;92.667519
2011-01-17;06:00:00;92.698210
2011-01-17;07:00:00;97.352941
2011-01-17;08:00:00;96.690537
2011-01-17;09:00:00;86.652174
2011-01-17;10:00:00;74.184143
2011-01-17;11:00:00;59.294118
2011-01-17;12:00:00;55.693095
2011-01-17;13:00:00;59.370844
2011-01-17;14:00:00;59.516624
2011-01-17;15:00:00;62.345269
2011-01-17;16:00:00;69.414322
2011-01-17;17:00:00;71.112532
2011-01-17;18:00:00;74.450128
2011-01-17;19:00:00;75.521739
2011-01-17;20:00:00;76.890026
2011-01-17;21:00:00;78.066496
2011-01-17;22:00:00;78.992327
2011-01-17;23:00:00;80.000000
2011-01-18;00:00:00;81.887468
2011-01-18;01:00:00;81.728900
2011-01-18;02:00:00;82.296675
2011-01-18;03:00:00;81.626598
2011-01-18;04:00:00;82.074169
2011-01-18;05:00:00;82.836317
2011-01-18;06:00:00;82.365729
2011-01-18;07:00:00;83.061381
2011-01-18;08:00:00;83.097187
2011-01-18;09:00:00;76.002558
2011-01-18;10:00:00;68.570332
2011-01-18;11:00:00;61.626598
2011-01-18;12:00:00;57.913043
2011-01-18;13:00:00;55.542199
2011-01-18;14:00:00;55.797954
2011-01-18;15:00:00;59.488491
2011-01-18;16:00:00;65.074169
2011-01-18;17:00:00;66.273657
2011-01-18;18:00:00;67.020460
2011-01-18;19:00:00;67.554987
2011-01-18;20:00:00;68.248082
2011-01-18;21:00:00;68.930946
2011-01-18;22:00:00;69.631714
2011-01-18;23:00:00;70.173913
2011-01-19;00:00:00;70.590793
2011-01-19;01:00:00;70.895141
2011-01-19;02:00:00;71.283887
2011-01-19;03:00:00;71.805627
2011-01-19;04:00:00;71.659847
2011-01-19;05:00:00;71.869565
2011-01-19;06:00:00;72.227621
2011-01-19;07:00:00;72.189258
2011-01-19;08:00:00;72.217391
2011-01-19;09:00:00;71.445013
2011-01-19;10:00:00;70.291560
2011-01-19;11:00:00;68.521739
2011-01-19;12:00:00;67.936061
2011-01-19;13:00:00;58.959079
2011-01-19;14:00:00;55.470588
2011-01-19;15:00:00;55.051151
2011-01-19;16:00:00;59.716113
2011-01-19;17:00:00;61.207161
2011-01-19;18:00:00;61.774936
2011-01-19;19:00:00;62.526854
2011-01-19;20:00:00;62.869565
2011-01-19;21:00:00;63.401535
2011-01-19;22:00:00;63.800512
2011-01-19;23:00:00;64.217391
2011-01-20;00:00:00;63.971867
2011-01-20;01:00:00;64.480818
2011-01-20;02:00:00;64.964194
2011-01-20;03:00:00;65.355499
2011-01-20;04:00:00;65.624041
2011-01-20;05:00:00;65.895141
2011-01-20;06:00:00;66.265985
2011-01-20;07:00:00;61.109974
2011-01-20;08:00:00;60.708440
2011-01-20;09:00:00;60.074169
2011-01-20;10:00:00;59.209719
2011-01-20;11:00:00;58.670077
2011-01-20;12:00:00;58.764706
2011-01-20;13:00:00;58.202046
2011-01-20;14:00:00;58.531969
2011-01-20;15:00:00;59.099744
2011-01-20;16:00:00;59.662404
2011-01-20;17:00:00;60.437340
2011-01-20;18:00:00;65.936061
2011-01-20;19:00:00;65.089514
2011-01-20;20:00:00;65.393862
2011-01-20;21:00:00;66.317136
2011-01-20;22:00:00;65.861893
2011-01-20;23:00:00;65.434783
2011-01-21;00:00:00;65.498721
2011-01-21;01:00:00;65.772379
2011-01-21;02:00:00;65.061381
2011-01-21;03:00:00;65.030691
2011-01-21;04:00:00;65.207161
2011-01-21;05:00:00;64.987212
2011-01-21;06:00:00;64.736573
2011-01-21;07:00:00;59.012788
2011-01-21;08:00:00;58.040921
2011-01-21;09:00:00;53.951407
2011-01-21;10:00:00;49.286445
2011-01-21;11:00:00;43.882353
2011-01-21;12:00:00;41.930946
2011-01-21;13:00:00;38.780051
2011-01-21;14:00:00;38.455243
2011-01-21;15:00:00;40.442455
2011-01-21;16:00:00;43.171355
2011-01-21;17:00:00;43.314578
2011-01-21;18:00:00;53.792839
2011-01-21;19:00:00;54.496164
2011-01-21;20:00:00;54.838875
2011-01-21;21:00:00;54.948849
2011-01-21;22:00:00;55.135550
2011-01-21;23:00:00;55.158568
2011-01-22;00:00:00;55.823529
2011-01-22;01:00:00;56.017903
2011-01-22;02:00:00;56.713555
2011-01-22;03:00:00;56.557545
2011-01-22;04:00:00;56.838875
2011-01-22;05:00:00;57.115090
2011-01-22;06:00:00;57.048593
2011-01-22;07:00:00;48.033248
2011-01-22;08:00:00;46.813299
2011-01-22;09:00:00;45.902813
2011-01-22;10:00:00;44.457801
2011-01-22;11:00:00;43.429668
2011-01-22;12:00:00;43.933504
2011-01-22;13:00:00;42.419437
2011-01-22;14:00:00;41.869565
2011-01-22;15:00:00;42.703325
2011-01-22;16:00:00;43.352941
2011-01-22;17:00:00;44.107417
2011-01-22;18:00:00;54.138107
2011-01-22;19:00:00;55.237852
2011-01-22;20:00:00;55.859335
2011-01-22;21:00:00;56.148338
2011-01-22;22:00:00;57.659847
2011-01-22;23:00:00;57.506394
2011-01-23;00:00:00;58.519182
2011-01-23;01:00:00;59.649616
2011-01-23;02:00:00;60.445013
2011-01-23;03:00:00;61.618926
2011-01-23;04:00:00;62.764706
2011-01-23;05:00:00;63.531969
2011-01-23;06:00:00;64.002558
2011-01-23;07:00:00;60.780051
2011-01-23;08:00:00;60.488491
2011-01-23;09:00:00;56.989770
2011-01-23;10:00:00;52.879795
2011-01-23;11:00:00;47.378517
2011-01-23;12:00:00;46.687980
2011-01-23;13:00:00;45.465473
2011-01-23;14:00:00;47.079284
2011-01-23;15:00:00;48.202046
2011-01-23;16:00:00;51.393862
2011-01-23;17:00:00;53.787724
2011-01-23;18:00:00;58.897698
2011-01-23;19:00:00;61.230179
2011-01-23;20:00:00;63.240409
2011-01-23;21:00:00;64.920716
2011-01-23;22:00:00;66.731458
2011-01-23;23:00:00;68.409207
2011-01-24;00:00:00;71.209719
2011-01-24;01:00:00;74.268542
2011-01-24;02:00:00;77.462916
2011-01-24;03:00:00;56.524297
2011-01-24;04:00:00;81.419437
2011-01-24;05:00:00;84.076726
2011-01-24;06:00:00;85.613811
2011-01-24;07:00:00;94.084399
2011-01-24;08:00:00;93.800512
2011-01-24;09:00:00;81.928389
2011-01-24;10:00:00;67.097187
2011-01-24;11:00:00;58.434783
2011-01-24;12:00:00;54.465473
2011-01-24;13:00:00;53.703325
2011-01-24;14:00:00;54.994885
2011-01-24;15:00:00;58.480818
2011-01-24;16:00:00;68.396419
2011-01-24;17:00:00;71.312020
2011-01-24;18:00:00;71.552430
2011-01-24;19:00:00;74.314578
2011-01-24;20:00:00;76.547315
2011-01-24;21:00:00;78.534527
2011-01-24;22:00:00;80.838875
2011-01-24;23:00:00;82.033248
2011-01-25;00:00:00;84.235294
2011-01-25;01:00:00;83.537084
2011-01-25;02:00:00;83.754476
2011-01-25;03:00:00;60.851662
2011-01-25;04:00:00;83.854220
2011-01-25;05:00:00;84.122762
2011-01-25;06:00:00;84.780051
2011-01-25;07:00:00;85.010230
2011-01-25;08:00:00;84.560102
2011-01-25;09:00:00;83.746803
2011-01-25;10:00:00;79.005115
2011-01-25;11:00:00;70.130435
2011-01-25;12:00:00;65.173913
2011-01-25;13:00:00;60.624041
2011-01-25;14:00:00;57.874680
2011-01-25;15:00:00;56.506394
2011-01-25;16:00:00;63.583120
2011-01-25;17:00:00;68.797954
2011-01-25;18:00:00;69.629156
2011-01-25;19:00:00;70.066496
2011-01-25;20:00:00;70.450128
2011-01-25;21:00:00;70.900256
2011-01-25;22:00:00;70.915601
2011-01-25;23:00:00;71.120205
2011-01-26;00:00:00;71.818414
2011-01-26;01:00:00;72.140665
2011-01-26;02:00:00;73.373402
2011-01-26;03:00:00;73.675192
2011-01-26;04:00:00;73.565217
2011-01-26;05:00:00;73.457801
2011-01-26;06:00:00;73.723785
2011-01-26;07:00:00;74.171356
2011-01-26;08:00:00;73.572890
2011-01-26;09:00:00;62.421995
2011-01-26;10:00:00;53.002558
2011-01-26;11:00:00;40.946292
2011-01-26;12:00:00;34.583120
2011-01-26;13:00:00;36.000000
2011-01-26;14:00:00;35.248082
2011-01-26;15:00:00;41.209719
2011-01-26;16:00:00;47.370844
2011-01-26;17:00:00;53.058824
2011-01-26;18:00:00;53.831202
2011-01-26;19:00:00;54.286445
2011-01-26;20:00:00;54.667519
2011-01-26;21:00:00;55.204604
2011-01-26;22:00:00;55.255754
2011-01-26;23:00:00;55.716113
2011-01-27;00:00:00;56.398977
2011-01-27;01:00:00;58.127877
2011-01-27;02:00:00;58.401535
2011-01-27;03:00:00;59.496164
2011-01-27;04:00:00;59.897698
2011-01-27;05:00:00;60.273657
2011-01-27;06:00:00;60.846547
2011-01-27;07:00:00;53.680307
2011-01-27;08:00:00;53.181586
2011-01-27;09:00:00;51.662404
2011-01-27;10:00:00;49.478261
2011-01-27;11:00:00;47.531969
2011-01-27;12:00:00;47.590793
2011-01-27;13:00:00;46.235294
2011-01-27;14:00:00;45.828645
2011-01-27;15:00:00;46.902813
2011-01-27;16:00:00;48.140665
2011-01-27;17:00:00;49.478261
2011-01-27;18:00:00;58.294118
2011-01-27;19:00:00;59.629156
2011-01-27;20:00:00;60.677749
2011-01-27;21:00:00;61.979540
2011-01-27;22:00:00;63.232737
2011-01-27;23:00:00;64.260870
2011-01-28;00:00:00;67.145780
2011-01-28;01:00:00;69.782609
2011-01-28;02:00:00;73.038363
2011-01-28;03:00:00;74.687980
2011-01-28;04:00:00;76.590793
2011-01-28;05:00:00;78.547315
2011-01-28;06:00:00;79.767263
2011-01-28;07:00:00;82.562660
2011-01-28;08:00:00;81.240409
2011-01-28;09:00:00;66.849105
2011-01-28;10:00:00;52.626598
2011-01-28;11:00:00;41.312020
2011-01-28;12:00:00;36.066496
2011-01-28;13:00:00;32.478261
2011-01-28;14:00:00;31.289003
2011-01-28;15:00:00;35.843990
2011-01-28;16:00:00;44.764706
2011-01-28;17:00:00;53.895141
2011-01-28;18:00:00;59.219949
2011-01-28;19:00:00;61.636829
2011-01-28;20:00:00;63.081841
2011-01-28;21:00:00;64.053708
2011-01-28;22:00:00;65.291560
2011-01-28;23:00:00;66.179028
2011-01-29;00:00:00;66.480818
2011-01-29;01:00:00;66.872123
2011-01-29;02:00:00;66.961637
2011-01-29;03:00:00;66.979540
2011-01-29;04:00:00;66.907928
2011-01-29;05:00:00;66.892583
2011-01-29;06:00:00;66.613811
2011-01-29;07:00:00;63.107417
2011-01-29;08:00:00;61.930946
2011-01-29;09:00:00;60.570332
2011-01-29;10:00:00;58.501279
2011-01-29;11:00:00;56.808184
2011-01-29;12:00:00;55.232737
2011-01-29;13:00:00;41.936061
2011-01-29;14:00:00;36.902813
2011-01-29;15:00:00;36.212276
2011-01-29;16:00:00;38.856777
2011-01-29;17:00:00;42.810742
2011-01-29;18:00:00;52.631714
2011-01-29;19:00:00;54.322251
2011-01-29;20:00:00;54.974425
2011-01-29;21:00:00;55.851662
2011-01-29;22:00:00;56.887468
2011-01-29;23:00:00;57.531969
2011-01-30;00:00:00;58.946292
2011-01-30;01:00:00;59.982097
2011-01-30;02:00:00;60.928389
2011-01-30;03:00:00;61.560102
2011-01-30;04:00:00;62.161125
2011-01-30;05:00:00;62.445013
2011-01-30;06:00:00;63.219949
2011-01-30;07:00:00;59.726343
2011-01-30;08:00:00;58.588235
2011-01-30;09:00:00;57.590793
2011-01-30;10:00:00;56.219949
2011-01-30;11:00:00;55.130435
2011-01-30;12:00:00;54.567775
2011-01-30;13:00:00;42.242967
2011-01-30;14:00:00;38.250639
2011-01-30;15:00:00;38.329923
2011-01-30;16:00:00;41.421995
2011-01-30;17:00:00;44.895141
2011-01-30;18:00:00;53.501279
2011-01-30;19:00:00;55.130435
2011-01-30;20:00:00;55.278772
2011-01-30;21:00:00;55.815857
2011-01-30;22:00:00;56.107417
2011-01-30;23:00:00;56.130435
2011-01-31;00:00:00;56.240409
2011-01-31;01:00:00;56.020460
2011-01-31;02:00:00;55.624041
2011-01-31;03:00:00;55.092072
2011-01-31;04:00:00;54.946292
2011-01-31;05:00:00;54.557545
2011-01-31;06:00:00;54.171355
2011-01-31;07:00:00;44.682864
2011-01-31;08:00:00;43.529412
2011-01-31;09:00:00;37.618926
2011-01-31;10:00:00;32.255754
2011-01-31;11:00:00;27.562660
2011-01-31;12:00:00;25.340153
2011-01-31;13:00:00;21.092072
2011-01-31;14:00:00;21.035806
2011-01-31;15:00:00;20.710997
2011-01-31;16:00:00;23.506394
2011-01-31;17:00:00;26.797954
2011-01-31;18:00:00;39.580563
2011-01-31;19:00:00;42.132992
2011-01-31;20:00:00;43.388747
2011-01-31;21:00:00;44.687980
2011-01-31;22:00:00;45.416880
2011-01-31;23:00:00;46.191816
2011-02-01;00:00:00;49.125320
2011-02-01;01:00:00;49.583120
2011-02-01;02:00:00;51.913043
2011-02-01;03:00:00;52.703325
2011-02-01;04:00:00;53.480818
2011-02-01;05:00:00;54.800512
2011-02-01;06:00:00;55.652174
2011-02-01;07:00:00;56.122762
2011-02-01;08:00:00;56.025575
2011-02-01;09:00:00;53.419437
2011-02-01;10:00:00;53.081841
2011-02-01;11:00:00;49.383632
2011-02-01;12:00:00;40.194373
2011-02-01;13:00:00;37.890026
2011-02-01;14:00:00;34.925831
2011-02-01;15:00:00;33.475703
2011-02-01;16:00:00;40.764706
2011-02-01;17:00:00;45.161125
2011-02-01;18:00:00;46.913043
2011-02-01;19:00:00;48.125320
2011-02-01;20:00:00;49.230179
2011-02-01;21:00:00;50.672634
2011-02-01;22:00:00;51.590793
2011-02-01;23:00:00;52.519182
2011-02-02;00:00:00;52.562660
2011-02-02;01:00:00;52.792839
2011-02-02;02:00:00;53.000000
2011-02-02;03:00:00;54.217391
2011-02-02;04:00:00;55.391304
2011-02-02;05:00:00;55.035806
2011-02-02;06:00:00;54.841432
2011-02-02;07:00:00;55.237852
2011-02-02;08:00:00;55.250639
2011-02-02;09:00:00;54.396419
2011-02-02;10:00:00;52.884910
2011-02-02;11:00:00;50.184143
2011-02-02;12:00:00;47.212276
2011-02-02;13:00:00;44.611253
2011-02-02;14:00:00;42.248082
2011-02-02;15:00:00;41.849105
2011-02-02;16:00:00;44.260870
2011-02-02;17:00:00;47.207161
2011-02-02;18:00:00;48.948849
2011-02-02;19:00:00;50.485934
2011-02-02;20:00:00;51.578005
2011-02-02;21:00:00;52.708440
2011-02-02;22:00:00;53.831202
2011-02-02;23:00:00;54.317136
2011-02-03;00:00:00;55.728900
2011-02-03;01:00:00;56.652174
2011-02-03;02:00:00;57.652174
2011-02-03;03:00:00;58.434783